Location: Drocourt
(49.0571°N, 1.7669°E)
Time: 11:31:27
(UTC+00:00)

Transit 4A - Pass Details

Date: 20 April 2024
Orbit: 871 x 971 km, 66.8° (Epoch: 24 May)

Event Time Altitude Azimuth Distance (km) Brightness Sun altitude
Rises 11:33:09 0° 175° (S) 3,535 11.5 52.5°
Reaches altitude 10° 11:36:04 10° 163° (SSE) 2,581 11.0 52.6°
Maximum altitude 11:40:52 26° 109° (ESE) 1,700 9.9 52.7°
Drops below altitude 10° 11:45:35 10° 56° (NE) 2,549 10.1 52.7°
Sets 11:48:26 0° 44° (NE) 3,482 10.6 52.7°
